Location: Ash Observatory
(39.7321°N, 75.2004°W)
Time: 16:21:50
(UTC-04:00)

Tiangong 2 - Visible Passes

Search period start: 24 May 2019 00:00
Search period end: 03 June 2019 00:00
Orbit: 379 x 387 km, 42.8° (Epoch: 24 May)

Date Brightness Start Highest point End Pass type
(mag) Time Alt. Az. Time Alt. Az. Time Alt. Az.
24 May 1.7 20:45:05 10° W 20:48:10 57° N 20:51:16 10° ENE visible
24 May 1.8 22:22:04 10° WNW 22:25:08 48° N 22:25:37 43° NE visible
25 May 2.1 21:21:58 10° WNW 21:25:00 45° N 21:28:02 10° ENE visible
25 May 2.9 22:58:45 10° WNW 23:00:24 28° WNW 23:00:24 28° WNW visible
26 May 1.4 21:58:43 10° WNW 22:01:49 59° NNE 22:02:59 33° ENE visible
27 May 1.9 20:58:39 10° WNW 21:01:42 48° N 21:04:45 10° E visible
27 May 2.0 22:35:23 10° WNW 22:37:41 42° W 22:37:41 42° W visible
28 May 1.0 21:35:19 10° WNW 21:38:28 82° NNE 21:40:13 23° ESE visible
29 May 1.9 22:12:05 10° W 22:14:56 36° SSW 22:14:56 36° SSW visible
30 May 1.2 21:11:55 10° WNW 21:15:01 64° SSW 21:17:30 15° ESE visible
31 May 2.7 21:48:58 10° W 21:51:26 21° SSW 21:52:15 19° S visible
01 Jun 2.0 20:48:34 10° W 20:51:31 37° SSW 20:54:26 10° SE visible
02 Jun 3.6 21:26:24 10° WSW 21:27:47 12° SW 21:29:09 10° S visible
